Regional Weather Roundup
Issued by NWS Charleston, WV

Current Version | Previous Version | Text Only | Print | Product List | Glossary On
Versions: 1 2 3 4 5 6 7 8 9 10 11 12 13 14 15 16 17 18 19 20 21 22 23 24 25 26 27 28
000
ASUS41 KRLX 130710
RWRRLX
Regional Weather Roundup
National Weather Service Charleston WV
300 AM EDT THU MAY 13 2021

Note: "fair" indicates few or no clouds below 12,000 feet with no
significant weather and/or obstructions to visibility.

WVZ003-130800-
Northern Panhandle of West Virginia

CITY           SKY/WX    TMP DP  RH WIND       PRES   REMARKS
WHEELING       CLEAR     44  31  60 CALM      30.32F
$$

WVZ009-130800-
Northwest West Virginia

CITY           SKY/WX    TMP DP  RH WIND       PRES   REMARKS
PARKERSBURG    CLEAR     38  35  89 CALM      30.33F
$$

WVZ006-130800-
Western West Virginia

CITY           SKY/WX    TMP DP  RH WIND       PRES   REMARKS
HUNTINGTON     CLEAR     48  33  56 NE3       30.31F
$$

WVZ015-130800-
West Central West Virginia

CITY           SKY/WX    TMP DP  RH WIND       PRES   REMARKS
CHARLESTON     CLEAR     40  38  93 CALM      30.31S
$$

WVZ509-031-039-130800-
North Central West Virginia

CITY           SKY/WX    TMP DP  RH WIND       PRES   REMARKS
MORGANTOWN     CLEAR     42  35  76 CALM      30.32F
CLARKSBURG     CLEAR     38  35  89 CALM      30.31S
BUCKHANNON     CLEAR     34  32  93 CALM      30.31S
$$

WVZ515-516-025-034-042-507-130800-
Southern West Virginia

CITY           SKY/WX    TMP DP  RH WIND       PRES   REMARKS
BECKLEY        CLOUDY    43  33  68 CALM      30.29S
LOGAN          FAIR      45  34  65 CALM      30.29F
PINEVILLE      MOCLDY    42  38  87 MISG      30.33F
BLUEFIELD      CLOUDY    44  28  53 CALM      30.28F
LEWISBURG      CLOUDY    41  32  70 CALM      30.29S
$$

WVZ525-526-130800-
Northern Mountains of West Virginia

CITY           SKY/WX    TMP DP  RH WIND       PRES   REMARKS
ELKINS         CLEAR     33  27  78 CALM      30.32R
$$

WVZ502-504-052-130800-
Eastern Panhandle of West Virginia

CITY           SKY/WX    TMP DP  RH WIND       PRES   REMARKS
PETERSBURG     CLEAR     36  36 100 CALM      30.31S
CUMBERLAND     CLEAR     43  35  73 N7        30.33S
MARTINSBURG    MOCLDY    50  31  48 N7        30.25S
$$

OHZ075-083-KYZ101-130800-
Southeast Ohio/Northeast Kentucky

CITY           SKY/WX    TMP DP  RH WIND       PRES   REMARKS
ATHENS         CLEAR     37  37  97 CALM      30.34F
JACKSON        FAIR      37  36  93 CALM      30.35F
ASHLAND        CLEAR     44  40  85 W3        30.34F
$$



USA.gov is the U.S. government's official web portal to all federal, state and local government web resources and services.